Baker City, OR

1:13 AM PST on February 13, 2016 (GMT -0800)
Baker City Municipal

Weather History for KBKE - February, 2013

Change the Weather History Date:

Saturday, February 2, 2013

  Actual Average Record
Temperature  
Mean Temperature 28 °F 27 °F  
Max Temperature 35 °F 36 °F 50 °F (1968)
Min Temperature 20 °F 17 °F -24 °F (1950)
Degree Days  
Heating Degree Days 37 38  
Month to date heating degree days 68 76  
Since 1 July heating degree days 4521 4599  
Cooling Degree Days 0 0  
Month to date cooling degree days 0 0  
Year to date cooling degree days 0 0  
Moisture  
Dew Point 24 °F    
Average Humidity 91    
Maximum Humidity 100    
Minimum Humidity 81    
Precipitation  
Precipitation 0.00 in 0.02 in 0.21 in (1987)
Month to date precipitation 0.00 0.04  
Year to date precipitation 0.84 0.84  
Sea Level Pressure  
Sea Level Pressure 30.45 in    
Wind  
Wind Speed 2 mph (NW)    
Max Wind Speed 9 mph    
Max Gust Speed 10 mph    
Visibility 3 miles    
Events Fog    
T = Trace of Precipitation, MM = Missing Value Source: NWS Daily Summary

Daily Weather History Graph

Daily Weather History Graph

Search for Another Location

Airport or City:

Trip Planner

Search our weather history database for the weather conditions in past years. The results will help you decide how hot, cold, wet, or windy it might be!

Date:

Astronomy

Feb. 02, 2013 Rise Set
Actual Time 7:09 AM PST 5:01 PM PST
Civil Twilight 6:37 AM PST 5:32 PM PST
Nautical Twilight 6:03 AM PST 6:07 PM PST
Astronomical Twilight 5:28 AM PST 6:41 PM PST
Moon No Moon Rise 10:02 AM PST (2/2)
Length of Visible Light 10h 54m
Length of Day
9h 52m
Waning Gibbous, 58% of the Moon is Illuminated
Feb 2
Waning Gibbous
Feb 3
Last Quarter
Feb 9
New
Feb 17
First Quarter
Feb 25
Full

Hourly Weather History & Observations

Time (PST) Temp. Windchill Dew Point Humidity Pressure Visibility Wind Dir Wind Speed Gust Speed Precip Events Conditions
12:53 AM 21.9 °F - 19.0 °F 89% 30.51 in 10.0 mi Calm Calm - N/A   Clear
1:51 AM 19.4 °F - 17.6 °F 93% 30.45 in 10.0 mi Calm Calm - N/A   Partly Cloudy
1:53 AM 19.9 °F - 18.0 °F 92% 30.53 in 10.0 mi Calm Calm - N/A   Scattered Clouds
2:06 AM 21.2 °F - 19.4 °F 93% 30.45 in 2.0 mi Calm Calm - N/A   Mostly Cloudy
2:08 AM 21.2 °F - 19.4 °F 93% 30.45 in 1.0 mi Calm Calm - N/A   Mist
2:13 AM 23.0 °F - 21.2 °F 93% 30.45 in 0.2 mi Calm Calm - N/A Fog Light Freezing Fog
2:30 AM 23.0 °F 17.0 °F 21.2 °F 93% 30.45 in 0.5 mi North 4.6 mph - N/A Fog Light Freezing Fog
2:37 AM 24.8 °F 20.5 °F 23.0 °F 93% 30.45 in 0.2 mi North 3.5 mph - N/A Fog Light Freezing Fog
2:50 AM 23.0 °F - 21.2 °F 93% 30.45 in 0.5 mi Calm Calm - N/A Fog Light Freezing Fog
2:53 AM 21.9 °F - 21.0 °F 96% 30.53 in 0.5 mi Calm Calm - N/A Fog Light Freezing Fog
3:45 AM 21.2 °F - 19.4 °F 93% 30.45 in 0.2 mi Calm Calm - N/A Fog Light Freezing Fog
3:53 AM 21.2 °F - 19.4 °F 93% 30.45 in 0.5 mi Calm Calm - N/A Fog Light Freezing Fog
4:08 AM 21.2 °F - 19.4 °F 93% 30.44 in 0.2 mi Calm Calm - N/A Fog Light Freezing Fog
4:25 AM 23.0 °F - 21.2 °F 93% 30.44 in 0.8 mi Calm Calm - N/A   Mist
4:33 AM 24.8 °F 20.5 °F 21.2 °F 86% 30.44 in 0.8 mi North 3.5 mph - N/A   Mist
4:48 AM 24.8 °F 20.5 °F 21.2 °F 86% 30.44 in 0.2 mi NNE 3.5 mph - N/A Fog Light Freezing Fog
4:53 AM 24.1 °F - 21.0 °F 88% 30.53 in 0.5 mi Calm Calm - N/A Fog Light Freezing Fog
5:09 AM 24.8 °F - 21.2 °F 86% 30.45 in 0.2 mi Calm Calm - N/A Fog Light Freezing Fog
5:51 AM 21.2 °F 16.4 °F 17.6 °F 86% 30.44 in 0.8 mi SW 3.5 mph - N/A   Overcast
5:52 AM 21.0 °F 16.2 °F 18.0 °F 88% 30.55 in 0.8 mi SW 3.5 mph - N/A   Overcast
5:57 AM 19.4 °F - 15.8 °F 86% 30.44 in 2.0 mi Calm Calm - N/A   Overcast
6:05 AM 19.4 °F - 15.8 °F 86% 30.44 in 3.0 mi Calm Calm - N/A   Overcast
6:08 AM 19.4 °F - 15.8 °F 86% 30.44 in 1.8 mi Calm Calm - N/A   Overcast
6:25 AM 21.2 °F - 17.6 °F 86% 30.44 in 0.5 mi Calm Calm - N/A Fog Light Freezing Fog
6:32 AM 21.2 °F - 19.4 °F 93% 30.44 in 0.2 mi Calm Calm - N/A Fog Light Freezing Fog
6:53 AM 24.1 °F - 19.9 °F 84% 30.54 in 0.5 mi Calm Calm - N/A Fog Light Freezing Fog
7:02 AM 24.8 °F - 19.4 °F 80% 30.45 in 0.2 mi Calm Calm - N/A Fog Light Freezing Fog
7:53 AM 25.0 °F - 21.0 °F 85% 30.56 in 0.2 mi Calm Calm - N/A Fog Light Freezing Fog
8:53 AM 27.0 °F 23.0 °F 23.0 °F 85% 30.56 in 0.2 mi NNE 3.5 mph - N/A Fog Light Freezing Fog
9:53 AM 28.9 °F 25.2 °F 25.0 °F 85% 30.56 in 0.2 mi North 3.5 mph - N/A Fog Light Freezing Fog
10:09 AM 28.4 °F - 26.6 °F 93% 30.46 in 0.8 mi Calm Calm - N/A   Overcast
10:27 AM 30.2 °F - 26.6 °F 86% 30.47 in 2.0 mi Calm Calm - N/A   Overcast
10:32 AM 30.2 °F 23.4 °F 26.6 °F 86% 30.47 in 0.8 mi WSW 6.9 mph - N/A   Overcast
10:41 AM 28.4 °F 22.2 °F 24.8 °F 86% 30.47 in 0.2 mi WSW 5.8 mph - N/A Fog Light Freezing Fog
10:53 AM 28.9 °F 23.9 °F 26.1 °F 89% 30.57 in 0.2 mi West 4.6 mph - N/A Fog Light Freezing Fog
11:36 AM 30.2 °F - 28.4 °F 93% 30.45 in 0.8 mi Calm Calm - N/A   Mist
11:53 AM 32.0 °F - 28.0 °F 85% 30.54 in 1.2 mi Calm Calm - N/A   Overcast
12:03 PM 32.0 °F - 28.4 °F 87% 30.44 in 3.0 mi Calm Calm - N/A   Overcast
12:53 PM 33.1 °F 30.0 °F 30.0 °F 89% 30.52 in 10.0 mi NE 3.5 mph - N/A   Mostly Cloudy
1:27 PM 33.8 °F - 30.2 °F 87% 30.41 in 10.0 mi Calm Calm - N/A   Partly Cloudy
1:45 PM 33.8 °F 27.0 °F 30.2 °F 87% 30.40 in 8.0 mi North 8.1 mph - N/A   Mostly Cloudy
1:53 PM 32.0 °F 26.4 °F 30.0 °F 92% 30.50 in 3.0 mi North 5.8 mph - N/A   Mostly Cloudy
1:57 PM 32.0 °F 26.4 °F 30.2 °F 93% 30.39 in 1.5 mi NNE 5.8 mph - N/A   Mostly Cloudy
2:07 PM 32.0 °F 26.4 °F 30.2 °F 93% 30.39 in 0.8 mi North 5.8 mph - N/A   Overcast
2:14 PM 32.0 °F 26.4 °F 30.2 °F 93% 30.39 in 2.0 mi North 5.8 mph - N/A   Overcast
2:22 PM 32.0 °F 27.5 °F 30.2 °F 93% 30.39 in 6.0 mi NNW 4.6 mph - N/A   Overcast
2:53 PM 32.0 °F 27.5 °F 30.0 °F 92% 30.48 in 10.0 mi NNW 4.6 mph - N/A   Mostly Cloudy
3:04 PM 33.8 °F 30.8 °F 30.2 °F 87% 30.38 in 10.0 mi NNW 3.5 mph - N/A   Scattered Clouds
3:34 PM 33.8 °F 28.6 °F 30.2 °F 87% 30.38 in 9.0 mi West 5.8 mph - N/A   Mostly Cloudy
3:38 PM 30.2 °F 24.3 °F 30.2 °F 100% 30.38 in 1.2 mi WSW 5.8 mph - N/A   Mostly Cloudy
3:44 PM 30.2 °F 25.4 °F 30.2 °F 100% 30.38 in 0.2 mi West 4.6 mph - N/A Fog Light Freezing Fog
3:53 PM 30.0 °F 26.5 °F 28.9 °F 96% 30.48 in 0.2 mi WSW 3.5 mph - N/A Fog Light Freezing Fog
4:53 PM 28.0 °F - 28.0 °F 100% 30.47 in 0.2 mi Calm Calm - N/A Fog Light Freezing Fog
5:17 PM 28.4 °F - 26.6 °F 93% 30.37 in 0.2 mi Calm Calm - N/A Fog Light Freezing Fog
5:53 PM 27.0 °F - 27.0 °F 100% 30.48 in 0.2 mi Calm Calm - N/A Fog Light Freezing Fog
6:15 PM 26.6 °F 22.6 °F 26.6 °F 100% 30.37 in 0.2 mi South 3.5 mph - N/A Fog Light Freezing Fog
6:53 PM 25.0 °F - 25.0 °F 100% 30.47 in 0.2 mi Calm Calm - N/A Fog Light Freezing Fog
7:34 PM 24.8 °F - 23.0 °F 93% 30.34 in 0.5 mi Calm Calm - N/A Fog Light Freezing Fog
7:46 PM 24.8 °F - 23.0 °F 93% 30.34 in 2.5 mi Calm Calm - N/A   Mostly Cloudy
7:49 PM 24.8 °F - 23.0 °F 93% 30.34 in 5.0 mi Calm Calm - N/A   Scattered Clouds
7:53 PM 25.0 °F 19.3 °F 21.9 °F 88% 30.45 in 9.0 mi SW 4.6 mph - N/A   Scattered Clouds
8:53 PM 24.1 °F - 21.9 °F 91% 30.43 in 10.0 mi Calm Calm - N/A   Clear
9:53 PM 24.1 °F 19.7 °F 21.0 °F 88% 30.42 in 10.0 mi West 3.5 mph - N/A   Clear
10:53 PM 23.0 °F 18.4 °F 21.0 °F 92% 30.43 in 10.0 mi WSW 3.5 mph - N/A   Clear
11:53 PM 23.0 °F - 21.0 °F 92% 30.42 in 10.0 mi Calm Calm - N/A   Clear